Wind_Speed
7 7 7 7 9 10 11 14 14 14 14 14 14 15 14 14 15 15 17 19 20 21 21 22 22 21 22 22 21 21 19 19 20 19 16 14 14 15 14 13 13 12 12 11 11 12 12 11 10 10 11 13 12 12 12 12 12 12 11 11 12 12 9 7 8 11 13 12 10 9 10 11 11 9 9 9 8 9 9 10 10 9 8 7 5
8 8 7 7 8 10 11 11 10 10 11 11 13 16 15 13 15 16 18 20 21 21 22 23 23 22 21 22 21 21 21 20 20 19 18 16 16 16 15 15 14 13 12 12 12 12 13 12 12 12 13 13 13 12 13 13 13 12 11 11 12 12 11 7 8 12 14 13 11 9 10 11 10 9 10 9 9 9 10 10 10 8 7 6 4
8 9 8 8 9 10 11 11 9 9 10 10 12 14 13 13 14 16 18 20 20 22 23 23 24 22 22 23 23 22 21 21 19 19 19 18 16 16 17 16 16 15 15 14 13 13 14 14 14 14 14 14 13 13 12 13 13 12 11 11 11 11 11 9 9 12 14 13 11 10 10 11 9 8 9 9 8 9 9 10 9 8 7 6 5
9 9 9 9 10 10 11 11 11 11 11 11 12 12 12 13 14 15 18 20 21 21 22 23 23 23 23 24 24 23 22 21 20 20 20 19 18 18 18 18 18 17 16 15 14 14 15 15 15 15 15 15 14 13 12 13 13 12 12 12 11 13 13 11 10 11 13 13 12 9 9 10 9 8 8 8 8 9 9 9 9 8 7 6 6
9 8 8 9 9 10 11 11 11 11 11 11 11 12 13 14 15 16 18 20 19 19 20 22 24 24 24 24 24 24 23 22 21 22 22 22 20 18 18 18 18 17 15 15 14 14 15 16 15 15 15 15 14 13 13 14 13 13 13 12 12 14 14 12 11 11 13 13 12 11 10 9 8 8 8 7 7 8 9 9 9 9 8 7 7
9 8 7 7 8 9 10 11 12 12 11 11 11 13 13 14 15 17 20 21 19 19 21 22 24 25 25 24 23 22 21 20 20 22 22 22 21 18 17 16 15 14 13 14 14 15 15 15 15 15 16 15 15 14 14 14 14 13 13 13 13 14 14 13 12 12 13 13 12 12 11 9 8 7 8 8 7 7 8 8 9 9 9 8 7
9 8 7 7 7 8 9 9 11 11 11 10 11 12 12 12 13 15 20 21 19 20 21 22 24 24 23 23 21 20 18 17 18 20 21 21 20 19 17 16 13 13 14 14 14 15 15 15 15 15 15 15 15 15 15 15 14 14 14 13 13 14 15 14 13 13 12 12 12 12 11 10 9 8 7 8 8 8 8 8 8 9 8 7 7
10 9 7 7 7 7 7 7 8 9 10 10 10 11 11 11 12 14 18 19 19 20 21 21 21 21 22 23 22 20 18 17 18 18 20 22 21 19 18 16 15 15 15 14 15 15 14 14 14 14 15 15 15 15 15 16 15 14 15 14 14 14 14 13 13 12 12 11 11 11 11 11 10 9 8 8 8 8 8 8 8 8 8 6 7
12 11 9 8 7 6 6 6 6 6 7 7 7 8 10 11 12 13 14 16 18 19 18 18 19 21 22 21 20 20 18 17 18 18 18 20 20 19 18 17 16 16 16 15 15 15 14 14 15 16 16 16 16 16 17 17 16 15 15 15 14 14 13 12 12 11 11 11 11 10 11 10 10 10 9 9 8 8 8 9 9 8 8 8 7
15 14 14 12 8 7 7 7 5 3 3 3 4 5 8 9 10 11 12 14 16 16 15 18 20 20 19 18 19 20 20 19 19 17 16 16 17 18 18 18 18 18 18 18 17 17 16 17 17 17 16 16 16 16 16 17 17 16 16 15 14 13 12 11 11 11 11 10 10 10 10 10 10 10 10 9 10 10 10 11 10 9 9 9 8
14 14 15 13 11 9 9 9 6 4 4 4 3 4 5 7 7 8 9 11 14 17 17 17 18 18 18 19 19 20 21 20 19 17 14 14 15 17 17 17 17 17 18 19 19 19 18 17 16 16 16 16 17 18 18 18 16 15 14 13 13 12 12 11 11 10 10 9 9 9 9 9 10 10 9 9 11 11 10 10 10 10 10 9 9
15 15 15 14 13 12 12 11 8 6 6 6 4 3 3 5 6 7 8 9 11 15 17 16 16 17 19 20 19 19 20 19 18 16 15 15 15 15 15 15 15 15 16 18 19 18 18 17 17 17 18 18 19 19 18 16 14 12 11 10 10 10 11 13 13 11 10 8 8 8 8 8 9 9 9 9 10 10 10 10 10 9 9 9 8
16 17 18 17 15 13 13 13 12 8 6 7 8 7 4 3 4 5 5 6 9 12 13 15 17 18 20 21 20 18 18 19 19 17 16 16 16 14 13 13 13 13 13 15 18 17 16 17 18 19 20 20 20 18 17 15 12 10 9 9 9 9 10 12 13 12 10 8 7 8 8 7 7 8 10 10 8 8 8 8 8 8 7 8 7
15 18 20 21 19 17 14 14 14 11 7 6 8 9 7 5 4 2 3 5 8 10 12 15 18 19 21 21 19 17 17 19 19 18 17 17 16 13 12 11 11 12 12 15 17 16 16 18 20 21 22 21 19 17 14 13 11 11 10 10 10 10 10 11 11 11 10 8 8 9 9 8 8 9 10 10 8 7 6 6 7 6 6 8 10
17 18 20 22 23 21 18 14 13 14 11 9 9 9 9 8 7 6 3 3 7 10 12 15 19 20 19 18 18 17 19 20 19 17 16 16 16 14 11 11 11 11 12 14 16 17 17 19 21 22 22 21 19 16 13 12 12 12 12 11 11 10 10 10 9 8 8 8 8 9 9 9 10 10 10 9 9 8 8 8 8 8 8 9 10
20 20 20 22 24 23 20 15 12 13 13 11 10 10 10 10 10 12 11 3 6 11 12 15 18 17 15 16 18 19 21 21 18 15 14 14 14 14 12 11 11 11 11 13 15 18 19 19 21 22 21 19 17 15 13 13 12 12 12 11 11 10 9 8 8 7 7 7 8 9 10 11 11 10 10 9 8 8 7 7 8 7 7 8 8
22 22 22 23 24 24 21 16 12 11 13 13 11 11 11 10 10 12 14 7 5 11 12 14 15 15 14 15 16 18 21 22 17 13 12 12 13 13 14 15 13 11 12 14 17 20 22 22 22 21 19 17 16 15 14 12 11 11 10 10 9 8 8 7 7 6 6 6 7 8 8 8 8 8 7 6 7 7 5 5 5 5 5 8 8
20 22 23 22 22 23 21 17 14 12 12 14 14 12 11 10 10 12 13 8 9 11 12 12 12 13 13 12 11 12 15 18 16 12 11 12 12 12 16 19 17 14 15 18 19 20 21 21 20 18 17 17 16 15 14 12 10 9 8 7 6 6 6 6 6 6 6 7 7 7 7 7 6 7 7 7 9 8 6 7 7 5 5 5 5
18 19 21 21 20 20 20 18 15 13 12 13 13 13 13 11 11 13 14 12 11 11 10 10 10 11 9 9 11 12 12 14 13 10 10 10 10 11 15 19 18 16 17 18 19 19 18 17 16 16 16 16 16 15 14 12 10 7 5 4 4 4 5 7 7 7 7 7 8 8 7 7 7 8 9 9 10 9 9 9 7 3 3 4 3
16 16 19 20 19 17 17 18 17 14 12 10 11 12 13 12 12 14 14 13 11 10 10 9 8 9 8 6 7 10 11 13 11 10 10 10 10 10 14 18 19 19 21 20 19 18 18 17 17 17 16 16 15 14 13 11 8 5 3 2 3 4 5 7 7 7 6 6 8 8 7 8 8 9 10 9 9 9 8 8 7 4 3 2 2
17 15 17 20 21 17 15 16 17 15 13 10 10 11 12 12 13 14 14 12 9 9 8 6 6 10 10 7 5 6 8 10 10 10 10 10 9 9 12 16 19 21 23 23 21 22 21 20 20 19 17 16 14 11 9 7 5 3 2 3 4 6 6 7 8 7 6 5 7 7 7 7 8 8 8 7 7 7 6 6 6 6 5 4 2
22 18 18 22 23 20 16 15 14 15 14 11 10 10 11 12 13 14 14 12 10 9 7 4 5 8 10 10 8 6 6 7 8 9 9 8 7 5 7 11 15 18 21 24 23 22 20 17 16 16 14 13 11 8 7 6 4 3 4 4 6 7 8 8 9 8 6 5 6 6 5 6 6 6 6 5 5 5 4 5 5 5 6 6 6
24 22 20 22 24 22 19 16 14 14 13 12 12 12 12 11 12 13 13 13 11 10 7 5 6 8 9 11 10 9 8 7 7 7 7 6 6 4 3 4 8 11 14 16 16 16 14 13 13 12 11 10 9 8 6 5 4 4 5 6 7 7 7 7 7 6 6 5 5 4 4 4 4 4 3 3 2 2 2 3 3 3 3 4 5
25 26 23 21 23 23 22 19 16 15 13 11 11 12 12 10 11 12 13 14 14 14 12 10 10 12 13 14 14 13 12 10 9 8 7 6 5 6 6 6 6 7 7 7 7 8 9 11 12 12 10 9 8 6 5 4 4 5 5 5 5 5 5 4 4 4 4 4 4 4 5 5 5 5 3 2 2 2 2 1 2 2 2 2 3
25 27 26 23 21 23 25 24 21 19 17 14 13 13 13 14 15 17 19 20 21 20 19 17 16 18 20 19 19 18 16 15 13 11 9 7 7 7 8 7 5 5 6 7 9 10 11 11 11 10 8 7 6 5 4 3 3 2 2 3 3 3 2 2 2 3 3 4 4 5 5 6 6 6 4 3 3 3 3 2 2 2 1 2 2
24 25 26 25 23 25 27 28 25 23 22 21 19 18 17 18 21 23 25 26 25 24 23 21 20 21 22 23 23 22 21 20 19 18 14 12 10 9 9 8 8 7 8 9 10 10 10 10 9 8 8 7 6 5 4 3 3 2 2 2 1 1 0 1 3 4 5 5 6 6 6 7 7 5 3 4 5 5 4 4 3 3 3 3 3
24 23 24 24 24 26 27 28 27 26 25 25 24 24 22 20 21 24 27 27 27 26 24 22 21 19 19 20 19 19 19 19 19 18 15 12 10 8 6 6 7 7 8 9 10 10 10 10 9 9 8 8 7 5 4 3 3 2 2 1 0 1 1 2 4 5 5 6 7 7 7 6 5 4 4 5 6 6 6 5 4 3 4 3 2
24 23 23 24 25 26 26 26 26 26 25 24 25 26 26 24 23 25 26 26 26 26 25 24 23 20 19 19 18 17 17 18 18 17 15 13 11 8 6 4 3 4 5 5 6 7 8 7 6 6 7 7 6 4 3 3 2 2 1 1 1 2 2 3 4 5 5 6 6 6 6 6 6 6 6 5 5 5 5 5 4 3 3 3 2
24 23 22 23 25 26 27 26 26 26 25 24 24 25 25 24 24 24 23 22 21 21 21 22 21 19 17 16 15 13 14 15 15 15 13 12 11 9 7 7 5 4 5 5 4 6 6 5 5 5 4 4 2 1 0 1 1 2 3 3 2 2 3 4 5 5 5 6 6 6 7 6 6 5 6 5 5 4 5 4 3 3 3 2 2
23 23 22 21 21 22 23 24 24 25 25 25 25 25 25 24 24 23 22 20 18 16 16 17 17 16 14 14 13 11 10 11 13 13 12 12 12 11 11 10 9 8 8 7 7 7 5 4 2 1 0 1 2 3 3 4 4 4 4 4 3 3 4 5 5 5 5 5 6 6 7 7 7 5 5 5 4 3 5 5 3 2 2 2 2
19 21 23 23 21 19 19 20 20 20 21 22 23 24 24 24 24 23 21 20 19 18 18 18 17 16 16 16 16 15 13 13 13 14 14 15 15 15 13 12 11 10 9 8 6 5 3 2 2 3 3 4 5 5 5 5 5 5 5 4 4 4 5 5 5 5 5 4 4 4 5 7 7 6 5 5 4 3 4 4 3 3 3 3 2
17 18 20 22 22 20 18 18 18 17 17 18 18 18 19 21 22 22 21 19 18 18 18 18 18 17 17 17 17 17 16 15 14 14 14 15 14 13 12 11 9 9 9 7 4 2 2 2 2 3 3 4 5 5 5 5 5 5 4 4 4 5 5 5 5 5 4 4 3 3 4 5 5 5 5 5 5 5 5 4 4 4 5 5 5
16 16 16 18 19 19 19 19 18 17 17 16 16 16 16 16 17 18 18 18 18 18 18 18 17 16 16 16 16 16 16 15 14 14 13 13 13 12 10 9 8 9 9 7 4 2 0 1 2 3 4 5 6 6 6 5 5 4 4 4 4 4 5 4 4 5 4 3 3 4 4 5 4 5 5 6 7 7 6 6 5 5 5 6 6
16 16 16 16 16 16 17 17 18 18 17 17 17 16 16 15 14 14 15 16 16 17 18 17 16 14 14 15 15 15 15 13 12 12 11 11 10 10 9 8 8 8 8 6 4 2 2 3 4 4 5 5 5 4 3 3 2 2 2 2 2 3 4 3 3 3 3 3 3 4 4 4 5 5 5 6 6 7 7 7 6 5 5 5 5
15 15 16 16 15 15 15 15 16 16 16 16 16 15 15 14 13 13 13 13 13 14 15 16 15 14 12 12 13 13 12 12 10 10 9 8 7 7 7 6 6 6 6 5 5 4 3 3 4 3 4 4 3 1 0 1 1 1 1 2 2 2 2 2 2 2 3 3 3 4 4 5 5 5 6 7 7 7 6 6 6 5 5 4 4
13 13 14 14 14 14 14 14 13 13 13 14 14 14 14 13 12 12 12 11 12 12 12 13 14 13 12 11 11 10 9 9 8 7 6 5 4 4 3 3 3 4 5 5 5 4 3 3 3 4 4 3 2 0 1 1 1 1 1 1 2 2 2 2 2 2 3 3 4 5 5 6 6 6 6 7 8 7 7 6 5 5 6 5 4
12 12 12 13 13 14 14 14 14 14 13 13 13 14 14 15 14 13 12 11 11 11 11 10 11 11 11 11 10 9 8 7 6 5 3 2 2 2 2 2 3 4 5 5 4 4 4 3 3 3 3 2 2 1 1 1 1 1 1 1 1 2 2 3 3 3 3 4 5 6 6 7 7 6 6 6 7 6 6 5 4 5 7 7 5
13 13 13 13 12 13 13 13 13 13 13 13 14 15 16 16 16 15 14 13 12 11 11 10 10 10 10 10 10 9 9 8 7 6 5 4 3 3 3 4 4 5 4 4 4 4 4 3 2 2 1 2 2 1 1 0 0 0 1 1 1 3 3 4 3 4 5 5 6 7 7 6 6 6 6 6 5 5 5 5 3 3 5 6 4
14 14 15 15 14 13 12 12 12 12 13 13 14 15 16 16 17 16 16 15 14 12 11 11 10 10 9 8 8 9 9 9 8 7 7 7 6 5 5 4 4 4 3 3 2 2 1 1 1 0 1 2 2 2 1 0 0 0 1 1 2 3 4 3 3 4 5 6 6 7 7 6 6 5 5 5 4 4 4 4 4 3 3 3 3
13 14 15 16 14 14 13 12 12 12 12 12 13 14 15 15 16 16 16 15 15 13 12 11 10 9 8 7 6 8 9 9 8 8 8 8 8 8 7 6 6 5 5 4 3 2 1 1 1 1 2 3 3 3 3 2 2 1 1 2 2 3 3 3 4 5 6 6 7 7 7 6 5 5 4 3 3 3 3 2 2 2 2 2 2
12 13 14 14 14 13 13 13 13 12 12 12 12 12 13 14 14 14 15 15 14 14 13 12 11 12 12 9 7 8 9 8 8 8 8 8 8 8 7 7 7 6 6 5 4 3 3 2 2 3 3 3 4 4 4 4 3 2 2 2 3 4 4 4 4 5 6 6 6 6 6 6 5 4 4 3 2 2 2 1 1 1 1 1 2
11 11 11 11 12 12 12 12 12 12 12 11 11 11 12 12 12 13 13 13 13 12 12 12 12 13 15 13 9 9 9 8 7 7 7 7 6 6 6 6 6 6 6 5 5 5 5 5 5 4 4 4 4 4 4 4 3 2 1 3 4 5 4 4 4 5 6 5 5 6 6 4 3 3 3 3 2 1 1 1 0 1 1 1 2
10 11 11 10 11 11 11 11 11 12 12 12 11 11 11 11 10 10 11 11 11 10 11 10 10 11 14 15 13 11 9 7 6 6 5 5 5 5 5 6 6 7 7 7 6 6 6 6 7 6 6 5 4 4 4 4 3 3 2 4 6 6 4 4 4 5 5 4 4 5 5 3 2 2 2 2 2 2 1 1 1 1 1 1 1
9 9 9 9 9 9 10 10 10 11 13 13 12 11 10 9 9 9 9 9 9 9 9 9 9 9 11 12 12 10 8 6 5 5 4 4 5 4 4 5 6 7 7 7 8 8 7 7 7 7 7 6 5 4 4 3 4 4 4 6 8 7 5 5 5 6 7 6 4 3 3 2 2 2 3 3 1 1 2 3 2 1 1 1 1
8 7 7 7 7 7 8 9 9 9 10 11 10 9 8 8 8 8 8 8 8 8 8 8 8 7 8 9 9 9 7 6 5 5 4 4 4 4 4 5 6 7 7 7 8 8 8 8 8 7 7 7 6 5 4 3 4 5 6 7 8 7 8 8 7 8 10 9 5 3 3 3 2 3 4 3 2 2 3 3 1 1 3 3 2
6 6 6 6 6 6 6 7 7 8 8 8 7 7 8 8 8 8 8 9 8 8 8 8 7 6 6 7 7 8 7 7 6 5 5 4 4 4 6 7 7 8 8 8 8 8 8 7 7 7 7 6 6 5 5 4 4 4 5 7 8 8 9 9 8 9 11 11 7 3 3 4 3 5 6 4 2 4 3 2 3 3 4 4 4
5 5 5 5 5 5 5 6 7 8 7 7 7 7 7 7 7 8 8 9 9 9 8 8 7 6 5 5 6 6 6 7 6 6 6 7 7 7 8 9 9 10 10 9 9 9 9 7 7 7 7 6 6 5 4 4 4 4 4 5 7 8 9 9 9 9 11 12 10 7 6 5 3 5 6 4 2 2 2 2 4 5 6 6 6
5 4 4 4 4 4 4 5 6 7 6 6 6 6 6 7 7 7 8 9 9 9 8 8 7 7 5 5 5 5 5 5 6 6 6 6 7 8 9 10 9 9 10 10 9 9 8 8 7 7 6 5 5 4 4 4 4 4 3 4 6 8 8 9 9 9 9 10 10 9 7 6 5 6 6 5 4 3 3 3 4 5 7 7 7
4 4 4 4 4 4 4 3 4 5 4 4 5 5 6 6 6 6 7 8 8 8 8 8 8 7 6 6 5 5 5 5 5 5 5 5 5 7 10 12 10 8 9 9 9 8 8 8 8 7 6 5 4 4 4 4 4 4 4 4 5 7 7 8 8 8 8 8 9 8 8 7 7 6 5 5 5 6 6 6 6 7 8 8 8
4 4 4 3 3 3 3 3 3 3 3 4 4 5 5 5 6 6 6 7 7 7 8 8 8 8 8 7 7 6 6 6 6 5 5 5 5 6 9 12 11 10 8 8 8 8 8 9 9 8 7 6 5 4 5 5 5 5 5 5 5 6 7 7 8 8 9 9 8 8 7 7 7 6 5 5 6 7 8 8 9 9 8 7 8
2 2 2 2 2 2 1 1 2 3 3 4 4 4 5 5 5 5 5 5 6 6 7 7 7 8 8 8 8 7 7 7 6 6 6 5 5 7 9 11 12 11 10 9 8 8 8 9 10 9 9 7 6 6 6 6 6 6 6 6 6 6 7 8 8 8 8 8 8 7 7 6 6 6 7 7 8 8 8 9 9 9 8 6 6
Wind_Direction
332 323 316 311 303 301 300 292 278 260 254 251 237 229 225 219 217 224 229 225 220 221 222 218 211 211 214 214 218 222 222 224 226 225 223 215 206 203 200 201 200 200 201 193 189 192 196 199 195 187 184 182 185 188 189 188 185 185 186 187 189 183 179 187 176 167 171 171 168 174 182 179 175 178 184 186 186 181 178 176 173 169 157 149 152
335 328 316 308 302 299 297 293 282 267 260 253 240 231 225 220 218 222 224 221 219 220 219 215 210 207 210 211 213 215 219 223 223 223 223 219 211 208 203 196 191 194 197 191 188 191 191 194 196 193 189 187 190 191 189 189 187 186 189 191 191 184 179 185 178 170 170 166 164 171 174 170 173 186 192 190 186 182 181 180 178 173 162 159 174
330 332 323 310 299 291 286 282 276 271 268 260 246 233 224 221 221 223 224 220 219 217 214 212 210 208 210 210 209 211 215 218 217 217 218 215 210 211 210 199 188 190 193 187 187 191 190 192 195 194 191 191 193 193 189 188 189 190 189 188 190 184 181 185 177 167 164 162 164 168 170 167 169 185 192 193 192 182 181 188 185 181 179 175 189
336 334 322 313 308 296 287 280 275 274 271 262 251 241 235 232 230 229 225 221 220 215 210 211 211 210 210 210 210 212 213 213 212 212 213 210 206 209 211 203 193 192 191 183 185 191 191 192 195 194 192 192 192 192 189 187 189 191 188 185 186 185 182 179 172 165 161 161 163 167 173 169 164 174 183 189 192 178 180 195 193 191 200 194 201
348 344 326 320 318 306 293 283 276 275 274 268 257 247 244 242 243 240 229 222 221 216 210 210 211 211 211 211 212 213 212 211 210 210 209 207 206 209 211 206 196 190 186 181 183 189 190 191 194 193 191 192 192 191 190 188 187 188 187 185 184 183 180 174 169 166 162 162 163 163 167 167 164 171 173 176 185 181 185 199 196 199 213 211 215
355 349 334 327 323 312 300 286 276 272 272 273 264 253 247 246 249 244 229 219 219 217 212 211 210 210 211 211 211 214 213 207 205 208 207 203 203 207 210 208 197 186 182 183 184 187 189 190 191 191 191 192 191 190 188 187 187 187 185 183 182 182 179 174 171 168 165 165 166 165 166 168 168 170 171 173 180 182 187 197 198 204 212 213 219
355 346 333 324 317 312 307 294 279 270 267 269 264 257 252 246 248 244 228 219 219 218 213 212 210 207 210 212 210 210 206 193 191 199 201 199 199 199 199 200 195 186 183 185 185 185 187 188 189 189 189 190 190 188 186 184 184 185 183 181 181 180 177 175 172 170 168 167 169 170 172 174 174 172 175 174 173 179 187 190 196 206 208 206 215
3 357 344 332 324 320 315 302 285 270 263 263 260 256 252 246 244 242 232 222 222 221 215 210 208 204 207 212 212 210 204 192 187 188 192 195 194 192 191 191 190 188 185 183 184 183 182 184 186 187 188 190 187 185 184 183 180 181 180 177 176 175 174 174 173 173 175 175 175 175 176 179 179 177 181 182 179 187 194 191 197 208 212 215 222
22 20 9 354 343 340 336 324 303 276 262 265 268 260 254 249 241 241 241 232 227 226 217 208 207 207 209 213 213 210 204 193 182 178 185 190 187 186 186 185 185 186 182 179 179 177 176 180 185 187 190 191 189 188 188 183 175 173 174 171 168 169 170 173 176 177 179 182 183 182 182 187 189 189 192 193 191 198 203 202 205 209 216 229 237
28 27 25 17 7 0 359 355 344 316 286 286 281 264 256 250 238 234 241 237 228 221 209 204 208 208 209 211 210 203 196 187 178 176 186 189 181 180 182 182 183 184 181 178 176 173 176 182 185 187 189 190 189 187 186 180 173 171 172 170 168 170 171 174 179 182 185 186 187 189 193 196 197 198 200 200 202 207 210 212 215 219 227 237 240
22 25 29 28 26 25 18 13 20 26 8 348 302 272 269 269 255 237 238 240 230 221 214 212 210 205 201 202 199 194 191 187 180 178 188 192 182 177 177 179 182 184 184 184 182 180 182 183 182 184 186 186 182 176 173 173 172 170 172 173 176 181 183 182 183 186 190 192 193 196 200 201 200 200 202 207 214 220 221 223 229 234 239 245 242
24 29 35 36 37 40 33 25 35 48 33 16 351 316 285 279 273 253 249 249 232 222 219 214 207 199 196 195 191 187 186 183 178 177 186 190 184 178 178 178 179 182 186 187 185 183 182 180 182 184 182 178 174 170 167 168 166 166 171 175 178 185 190 191 190 189 190 194 197 200 202 204 207 206 206 213 222 231 236 235 238 239 240 251 253
28 34 41 43 43 46 40 29 29 36 33 27 19 10 359 308 281 258 250 243 219 207 205 203 199 194 189 186 184 182 178 174 173 175 181 182 178 178 180 180 181 183 184 186 184 181 182 185 184 181 176 172 171 170 169 170 170 172 178 181 182 181 183 188 192 192 192 188 185 194 200 201 206 214 222 227 228 234 242 239 241 243 239 245 243
28 33 40 45 46 48 47 37 31 31 30 31 25 19 22 15 338 291 232 221 207 196 196 196 192 187 182 177 173 171 170 169 170 172 177 178 178 182 184 181 183 185 181 183 184 184 186 186 181 176 173 172 173 173 174 177 178 177 180 184 188 186 183 186 190 193 195 188 186 203 212 209 214 226 234 234 227 226 229 227 232 234 231 237 234
30 30 33 41 43 44 46 43 36 36 38 39 35 31 35 38 29 24 17 219 198 191 195 188 178 175 174 167 162 163 165 166 166 169 174 179 184 191 190 180 178 179 175 178 183 185 185 182 178 175 173 172 174 175 178 180 179 179 182 184 186 188 187 189 190 193 200 206 215 230 238 236 238 246 247 242 238 234 230 235 242 242 243 248 243
33 30 29 36 38 37 40 45 43 41 41 44 49 53 56 58 53 39 24 358 193 184 183 175 165 162 160 157 162 169 168 163 165 169 173 180 190 195 193 185 183 181 176 174 176 178 179 177 177 176 175 176 177 177 178 180 181 182 184 183 183 184 184 187 193 201 213 228 238 243 245 245 246 250 251 249 247 242 239 252 259 255 257 256 242
34 32 31 34 35 32 35 45 52 46 42 46 57 69 74 75 70 48 29 26 149 151 150 152 151 150 149 152 165 176 169 157 158 168 170 173 187 194 192 190 190 192 190 184 180 179 177 176 178 181 182 180 179 178 176 176 178 178 178 180 182 183 188 195 205 217 228 236 239 235 233 232 231 233 237 239 242 241 239 250 253 252 263 262 250
32 33 33 32 33 32 33 44 58 57 50 54 61 69 73 73 70 57 49 68 116 121 124 132 134 137 142 144 154 170 163 148 152 170 173 169 179 191 194 193 191 192 194 190 183 180 179 180 184 188 187 183 180 179 172 165 167 171 172 180 188 196 206 210 216 226 228 228 226 218 213 214 219 229 238 244 248 246 234 229 236 249 263 259 255
28 31 34 33 35 37 35 40 54 64 63 63 66 69 69 71 78 77 79 95 108 106 109 115 118 126 139 149 157 166 163 152 157 176 183 181 185 192 197 199 196 189 188 189 185 182 184 190 192 191 188 183 178 173 166 158 161 167 166 175 203 218 215 212 214 215 212 209 207 207 215 228 239 247 251 253 253 251 243 234 229 237 255 246 244
30 31 36 36 36 41 42 40 45 58 67 68 69 74 77 81 91 96 98 102 105 101 97 100 114 125 129 142 162 168 167 165 169 181 193 201 204 203 204 206 202 192 185 185 188 188 189 192 190 186 184 181 172 166 165 160 158 161 163 191 239 236 214 207 206 196 182 192 206 217 232 243 250 255 257 257 254 248 243 235 218 196 198 231 253
43 39 41 41 38 38 44 44 43 48 57 62 69 80 85 87 93 103 107 104 105 113 108 94 113 131 131 137 158 168 168 173 179 185 193 200 203 210 215 213 210 202 190 185 189 192 189 186 182 178 173 170 166 165 170 171 168 185 221 237 239 231 216 203 194 184 180 200 218 229 239 244 251 256 254 251 245 235 224 217 207 194 185 177 178
51 48 47 48 45 40 42 46 48 49 51 57 67 79 87 90 95 107 116 115 118 133 135 100 104 131 140 146 157 166 165 167 173 178 183 186 185 201 222 220 219 215 201 188 184 182 175 166 167 170 166 167 176 183 185 189 199 214 220 216 213 215 215 206 198 200 212 223 225 229 235 239 246 249 247 242 240 233 214 197 194 199 203 196 183
55 54 53 52 51 48 45 45 50 54 54 56 63 69 76 88 96 107 123 132 133 137 136 120 119 131 136 136 137 140 140 136 139 146 152 156 154 138 133 176 195 199 192 179 169 168 165 159 162 170 174 181 188 186 183 193 205 206 203 201 200 202 206 205 203 208 215 216 214 218 223 224 224 224 231 236 223 201 199 199 188 189 208 211 198
59 59 59 57 56 57 57 55 56 59 60 61 67 72 76 85 96 108 121 124 118 112 113 119 128 134 132 129 126 124 123 124 126 131 135 140 138 121 112 129 156 174 184 179 170 176 183 178 171 169 170 176 180 181 192 203 200 192 186 180 177 178 181 184 189 198 205 207 210 215 212 200 187 184 186 175 140 122 111 108 121 131 165 203 194
66 66 67 66 63 63 65 66 65 66 68 68 72 79 87 95 102 109 114 113 107 104 105 106 113 119 120 118 118 118 119 120 119 117 118 122 121 117 117 126 143 163 178 180 173 172 174 172 165 156 149 149 152 158 166 160 145 141 140 138 142 146 145 150 169 189 207 213 212 215 211 199 191 194 187 146 118 116 115 109 99 102 134 171 142
72 72 72 72 72 72 73 73 72 71 72 74 75 77 82 90 95 98 102 104 104 103 101 99 99 101 102 102 104 108 111 112 109 106 105 104 101 99 97 94 92 102 120 127 127 128 130 127 120 112 106 101 97 95 87 80 81 90 98 101 96 90 121 192 202 207 214 213 205 201 201 200 201 203 172 132 135 144 140 130 119 113 121 119 91
73 74 74 73 74 74 75 77 78 76 76 77 79 80 80 84 88 89 89 93 98 100 101 100 97 94 92 92 92 94 97 96 96 98 98 96 96 97 97 92 84 84 90 91 87 88 90 90 91 93 92 86 81 75 73 80 98 111 105 94 355 290 264 233 221 216 210 206 204 200 196 192 184 165 139 137 150 154 140 126 120 119 123 124 112
73 74 74 75 76 75 75 76 77 78 78 78 79 79 78 80 82 81 79 79 83 86 88 89 90 91 95 96 94 93 90 83 81 85 87 86 88 94 102 109 108 106 107 101 94 94 92 88 89 89 85 83 84 87 92 94 94 92 53 296 262 254 235 210 205 205 198 194 193 187 175 164 154 146 141 142 142 128 112 109 116 123 121 120 126
73 73 73 73 74 75 75 73 72 73 75 76 78 78 76 75 77 77 75 73 72 73 74 75 77 80 86 90 91 92 91 83 77 78 82 86 89 89 91 94 96 105 109 97 86 86 81 71 70 75 78 84 89 81 358 323 303 294 291 285 261 230 206 191 189 189 184 178 173 165 157 150 143 138 134 131 129 125 122 120 120 125 127 131 135
69 71 73 73 71 70 71 71 70 70 69 70 73 75 75 75 74 74 74 73 72 71 70 71 71 72 74 75 73 73 77 78 74 71 71 73 73 70 70 70 67 67 68 61 59 70 75 76 87 101 169 251 258 260 256 255 259 270 283 282 256 221 202 192 189 186 178 171 168 165 156 142 130 126 128 126 125 131 132 125 119 121 126 127 126
70 70 72 75 74 70 68 67 67 67 67 67 68 68 69 69 69 68 69 70 71 71 71 71 71 71 70 71 72 70 70 72 72 71 68 66 65 66 67 66 63 62 59 50 51 71 97 150 191 212 230 237 237 238 242 250 263 277 284 270 237 214 203 194 189 185 176 170 170 169 163 152 139 134 140 140 134 129 123 117 115 121 124 122 117
74 72 71 73 73 72 71 71 69 68 68 69 68 67 67 66 64 63 63 64 67 70 70 69 69 68 69 71 73 74 74 73 73 74 75 76 77 78 77 77 76 71 62 49 44 71 137 199 218 221 230 240 249 255 264 274 277 274 261 240 219 207 201 192 186 182 172 165 166 169 175 171 153 141 146 147 141 135 129 122 121 121 122 129 129
79 77 72 69 69 69 69 70 70 69 69 69 70 70 69 67 65 63 60 59 62 66 68 68 66 66 69 73 75 77 79 79 79 81 84 86 84 79 74 73 75 71 61 46 27 23 23 258 265 265 267 271 273 274 276 273 264 249 232 219 208 203 198 189 187 187 179 171 177 182 182 175 158 146 147 144 139 134 126 120 122 123 121 125 126
82 81 79 73 68 68 68 67 68 68 68 69 70 70 70 70 70 68 63 60 59 62 66 70 70 70 74 79 83 85 87 89 91 92 94 92 87 81 76 71 67 63 55 39 18 360 312 285 278 274 274 272 269 271 273 263 245 228 207 188 182 193 192 180 179 185 170 146 155 167 159 146 137 137 138 132 128 126 125 126 133 134 128 124 121
76 76 78 76 70 67 67 67 67 65 64 65 65 65 66 67 67 68 68 66 62 61 63 66 67 69 75 83 88 91 93 95 95 95 94 90 87 86 84 73 60 52 43 29 18 3 327 298 282 269 262 260 256 259 23 101 120 131 159 165 161 177 182 166 158 158 139 122 135 146 143 143 145 151 155 148 134 122 122 129 134 135 133 126 119
74 70 71 72 72 73 73 71 69 67 64 61 60 58 57 58 61 63 66 67 66 64 61 56 52 53 60 70 77 83 88 92 94 95 92 84 77 77 72 48 25 15 6 1 1 353 333 307 287 271 258 248 239 155 96 104 123 134 148 158 162 166 165 152 145 140 133 136 143 142 142 145 143 140 144 144 134 127 129 134 136 138 137 127 112
79 75 72 70 71 74 75 72 69 68 65 61 59 56 54 55 57 59 64 69 69 67 63 57 50 47 49 53 56 59 65 69 72 76 75 56 31 21 2 343 342 342 336 333 332 327 314 299 288 278 262 254 258 243 152 144 127 121 127 137 152 164 165 163 157 145 139 145 148 147 148 146 136 128 127 126 125 131 137 135 129 124 116 108 99
78 83 89 89 82 76 74 69 66 65 63 60 60 58 56 56 56 57 60 67 71 69 66 62 56 51 48 44 41 40 41 43 44 44 46 41 25 8 354 340 331 323 317 310 305 301 295 283 267 253 255 268 280 283 275 282 356 101 115 128 146 154 156 154 145 136 141 148 147 142 141 136 125 120 122 123 129 141 145 139 132 111 92 86 88
75 80 89 95 92 85 80 74 68 65 63 60 60 59 56 55 56 56 56 60 63 65 63 59 54 49 43 38 38 37 33 32 35 39 40 40 36 27 22 14 358 345 340 334 316 295 286 276 241 237 291 291 285 283 275 239 220 189 147 147 147 140 135 134 134 135 141 147 146 143 142 138 125 116 118 126 135 141 138 133 132 123 100 85 91
81 82 84 87 87 84 80 76 70 67 66 65 62 60 58 56 55 54 55 55 56 57 56 52 45 35 22 17 35 49 42 33 35 43 43 43 44 44 44 46 42 36 33 31 29 37 45 12 307 302 301 294 288 285 274 256 243 213 180 185 184 167 152 152 156 154 152 153 153 151 148 141 128 122 131 143 143 137 133 125 115 110 97 81 78
86 86 84 84 83 79 76 73 70 68 68 68 66 62 60 57 54 53 53 53 51 49 49 45 37 29 23 18 32 55 53 42 43 52 52 50 50 50 47 47 44 38 33 29 22 15 9 352 331 319 310 302 297 289 276 262 243 209 194 199 189 179 173 166 160 159 159 157 152 148 145 140 138 153 169 161 137 127 132 121 86 86 87 56 48
89 87 85 83 81 77 73 70 68 67 67 68 67 63 58 54 51 49 50 49 48 46 45 41 34 28 27 29 41 57 57 48 49 56 55 51 48 42 35 33 29 20 14 11 3 358 352 343 334 325 314 307 303 295 279 257 223 192 199 197 183 176 174 174 166 159 159 157 154 153 152 145 150 174 179 159 150 216 223 162 106 338 4 8 15
91 90 89 86 80 77 74 72 72 70 64 60 61 61 57 51 47 45 44 43 43 42 40 39 35 27 23 28 39 50 49 43 45 50 50 47 42 32 22 18 13 9 6 1 354 350 346 340 334 329 322 314 308 302 293 264 221 199 196 197 193 185 175 173 170 162 161 165 164 159 152 140 139 180 197 187 192 231 270 274 274 308 346 336 343
90 88 88 83 79 78 77 74 72 66 55 48 48 51 52 49 45 42 38 34 33 33 31 29 31 29 24 25 32 38 37 33 37 40 35 29 26 19 7 357 353 355 358 356 351 349 345 340 336 330 325 320 311 301 300 275 234 223 219 212 205 194 181 179 179 171 166 162 155 159 169 165 163 201 238 260 251 251 301 303 286 216 150 161 238
90 87 86 84 81 80 77 72 68 62 53 47 46 48 48 46 41 37 32 27 26 25 23 19 19 25 28 26 27 29 28 25 22 20 17 14 10 360 346 338 334 336 338 339 341 342 339 337 336 331 325 324 317 305 298 287 260 245 235 224 211 199 192 191 186 177 172 164 148 158 202 208 200 209 227 259 305 296 280 283 279 153 144 147 163
91 86 85 86 84 83 80 73 67 60 53 47 45 44 42 42 38 31 25 25 24 22 19 15 10 11 17 20 21 23 23 19 14 5 355 348 338 328 324 322 320 321 321 319 323 329 329 328 329 325 320 320 318 307 298 294 285 268 246 229 215 205 202 198 188 181 183 180 170 173 202 211 234 245 240 240 278 290 267 215 156 147 145 140 144
88 83 85 86 81 80 81 72 62 56 49 40 40 42 38 34 33 27 24 26 26 21 17 14 11 7 5 6 9 13 15 15 13 5 355 348 338 326 319 314 310 311 313 309 309 314 317 317 318 318 315 314 315 311 303 295 289 278 250 227 217 213 212 210 201 194 195 196 200 208 205 194 216 263 264 248 249 280 276 155 145 146 140 134 136
86 84 88 89 86 86 81 63 50 48 43 35 32 33 28 23 23 24 25 25 23 18 15 12 9 6 359 350 350 353 353 356 1 1 359 355 345 334 333 330 320 311 311 310 307 308 310 311 314 316 313 310 309 307 306 301 291 279 259 236 225 223 224 226 225 220 216 217 224 232 233 225 224 238 243 233 216 203 180 155 150 145 138 138 143
85 85 86 92 97 95 87 70 52 44 39 31 25 21 17 14 12 13 17 19 16 13 13 10 6 2 354 342 335 334 331 332 337 340 344 345 337 329 336 342 340 328 318 314 312 311 310 309 311 314 313 308 304 301 302 300 289 276 265 252 239 232 231 233 235 235 236 239 239 241 245 250 246 240 236 226 203 186 178 169 161 155 150 149 151
79 79 80 88 96 89 79 73 61 39 24 18 10 4 3 5 2 357 0 4 2 1 2 1 359 357 352 341 330 322 318 317 315 312 319 328 324 318 329 341 348 346 335 322 315 314 315 313 313 314 312 305 299 294 293 292 287 277 266 255 244 237 234 235 236 238 240 243 245 242 241 242 239 230 216 199 186 179 175 167 158 153 151 151 152
67 69 67 83 97 94 78 61 43 14 352 346 344 339 341 347 345 338 337 342 344 345 347 346 345 346 344 341 334 322 310 306 304 298 297 303 304 307 320 335 343 345 341 333 323 319 317 317 317 316 313 308 300 294 291 287 281 274 265 255 244 238 236 236 238 241 241 242 242 240 234 225 215 202 188 179 173 169 168 166 160 154 152 154 154
Height
1511 1511 1510 1510 1509 1508 1508 1506 1504 1504 1503 1502 1503 1503 1503 1503 1503 1503 1502 1502 1502 1502 1502 1502 1504 1507 1509 1511 1513 1514 1515 1516 1517 1518 1519 1521 1523 1524 1525 1525 1526 1528 1530 1531 1532 1533 1535 1538 1540 1541 1543 1546 1548 1550 1552 1553 1554 1556 1557 1557 1558 1559 1560 1561 1562 1563 1565 1566 1568 1569 1569 1570 1571 1572 1572 1572 1572 1573 1573 1574 1574 1575 1576 1576 1577
1510 1509 1509 1508 1508 1507 1506 1504 1503 1502 1502 1501 1500 1500 1501 1502 1502 1501 1501 1501 1500 1500 1500 1501 1503 1506 1508 1509 1511 1512 1513 1514 1516 1517 1518 1519 1521 1522 1523 1523 1525 1527 1529 1530 1532 1534 1536 1538 1541 1542 1544 1546 1548 1549 1551 1552 1553 1555 1556 1557 1557 1558 1560 1561 1562 1563 1564 1566 1567 1568 1568 1570 1571 1572 1572 1572 1572 1572 1573 1573 1574 1575 1575 1576 1576
1509 1508 1508 1507 1506 1505 1504 1503 1502 1501 1500 1500 1499 1499 1499 1500 1500 1500 1500 1499 1499 1499 1499 1500 1502 1505 1506 1507 1509 1510 1512 1513 1515 1516 1517 1518 1520 1521 1522 1523 1524 1526 1527 1530 1532 1534 1537 1539 1541 1543 1545 1546 1548 1549 1550 1551 1553 1554 1555 1556 1556 1557 1559 1561 1561 1563 1564 1565 1567 1568 1568 1569 1571 1571 1571 1571 1572 1572 1573 1574 1574 1575 1575 1576 1576
1508 1508 1507 1506 1505 1504 1502 1501 1501 1500 1499 1499 1498 1498 1498 1498 1498 1498 1499 1499 1498 1498 1498 1499 1501 1503 1504 1505 1507 1508 1510 1512 1513 1515 1516 1518 1519 1520 1521 1522 1524 1525 1526 1528 1532 1534 1537 1539 1542 1543 1544 1546 1547 1548 1549 1551 1552 1553 1554 1555 1556 1557 1559 1560 1561 1562 1563 1565 1567 1568 1569 1569 1570 1571 1571 1571 1571 1572 1573 1574 1574 1575 1575 1575 1576
1508 1507 1506 1505 1504 1503 1501 1500 1499 1498 1498 1498 1497 1497 1497 1497 1497 1497 1498 1498 1498 1498 1498 1499 1500 1501 1502 1503 1505 1507 1508 1510 1512 1514 1516 1517 1518 1519 1520 1521 1523 1524 1525 1528 1531 1534 1537 1539 1541 1542 1544 1545 1546 1547 1548 1550 1551 1553 1554 1555 1556 1557 1558 1559 1561 1562 1563 1565 1566 1568 1569 1569 1570 1570 1571 1571 1571 1572 1573 1573 1574 1575 1575 1575 1575
1508 1507 1505 1503 1502 1501 1499 1499 1498 1497 1497 1496 1496 1496 1496 1496 1496 1496 1496 1497 1497 1497 1497 1497 1498 1499 1501 1502 1504 1506 1507 1510 1513 1515 1516 1517 1518 1519 1520 1522 1524 1525 1526 1529 1531 1534 1536 1538 1540 1541 1542 1543 1545 1546 1547 1549 1551 1552 1553 1554 1556 1556 1557 1558 1560 1561 1563 1564 1565 1567 1568 1569 1570 1570 1570 1571 1571 1572 1573 1573 1574 1574 1574 1574 1575
1508 1506 1504 1503 1502 1500 1499 1498 1497 1496 1496 1496 1496 1495 1495 1496 1496 1495 1495 1495 1495 1495 1495 1496 1496 1498 1500 1502 1503 1505 1507 1510 1515 1516 1516 1517 1518 1519 1520 1523 1525 1526 1527 1530 1532 1534 1535 1537 1539 1540 1541 1542 1543 1544 1546 1548 1550 1551 1552 1554 1555 1556 1557 1558 1559 1561 1562 1564 1565 1566 1567 1568 1569 1569 1570 1570 1571 1572 1572 1573 1573 1573 1573 1573 1574
1508 1506 1504 1502 1501 1500 1499 1497 1496 1496 1495 1495 1495 1495 1495 1495 1494 1494 1493 1493 1494 1494 1494 1495 1496 1497 1499 1501 1502 1504 1506 1510 1513 1515 1517 1518 1519 1519 1521 1523 1525 1526 1528 1530 1531 1533 1535 1536 1537 1538 1539 1540 1542 1543 1545 1546 1548 1550 1551 1553 1554 1555 1556 1557 1559 1560 1562 1563 1565 1566 1566 1567 1568 1569 1569 1569 1570 1571 1572 1572 1573 1573 1573 1573 1573
1507 1505 1503 1502 1501 1499 1498 1497 1496 1495 1495 1495 1494 1494 1493 1493 1493 1492 1492 1492 1493 1494 1495 1496 1496 1497 1499 1501 1502 1504 1506 1509 1511 1514 1517 1518 1519 1520 1521 1523 1525 1526 1527 1529 1531 1532 1534 1535 1536 1537 1538 1539 1541 1542 1544 1545 1547 1549 1550 1552 1553 1554 1556 1557 1558 1560 1561 1563 1564 1565 1565 1566 1567 1568 1568 1568 1569 1570 1571 1571 1571 1572 1572 1572 1572
1507 1505 1504 1502 1501 1499 1498 1497 1496 1496 1495 1495 1494 1493 1492 1492 1491 1492 1492 1492 1493 1494 1496 1496 1495 1497 1499 1501 1503 1504 1506 1508 1511 1514 1517 1518 1518 1520 1521 1523 1524 1525 1527 1528 1529 1531 1532 1533 1534 1535 1537 1539 1541 1542 1543 1545 1546 1548 1550 1551 1552 1554 1555 1557 1558 1559 1561 1562 1563 1564 1564 1565 1566 1566 1567 1567 1568 1569 1569 1569 1570 1571 1571 1571 1571
1508 1506 1504 1503 1501 1499 1498 1497 1496 1496 1496 1495 1494 1493 1492 1491 1491 1492 1492 1492 1493 1494 1495 1495 1495 1497 1499 1501 1504 1505 1506 1508 1510 1513 1516 1518 1518 1520 1521 1522 1524 1525 1526 1527 1528 1529 1530 1532 1533 1536 1537 1539 1541 1542 1543 1545 1547 1548 1549 1551 1552 1553 1554 1556 1557 1559 1560 1561 1562 1563 1564 1564 1565 1565 1566 1566 1566 1567 1567 1568 1568 1569 1569 1570 1570
1508 1506 1505 1503 1502 1500 1499 1498 1497 1496 1496 1495 1494 1493 1492 1491 1491 1492 1491 1492 1492 1493 1494 1494 1495 1498 1499 1502 1505 1506 1507 1508 1510 1513 1516 1518 1519 1520 1521 1522 1523 1524 1525 1526 1527 1529 1530 1532 1533 1535 1537 1539 1541 1542 1544 1545 1547 1548 1549 1550 1552 1552 1553 1555 1556 1557 1559 1560 1561 1562 1563 1563 1563 1564 1564 1565 1565 1565 1565 1566 1566 1567 1567 1568 1568
1509 1507 1505 1504 1502 1501 1499 1498 1497 1496 1496 1495 1494 1493 1493 1492 1492 1491 1491 1491 1492 1493 1493 1494 1496 1498 1500 1502 1504 1505 1507 1508 1510 1513 1516 1518 1519 1520 1520 1521 1523 1524 1525 1526 1527 1528 1530 1532 1533 1535 1537 1539 1541 1542 1544 1545 1546 1548 1549 1550 1551 1552 1553 1554 1555 1556 1557 1559 1560 1560 1561 1562 1562 1562 1562 1563 1564 1564 1564 1565 1565 1565 1565 1566 1566
1510 1507 1506 1504 1502 1501 1500 1498 1498 1496 1495 1495 1495 1494 1493 1492 1492 1491 1491 1492 1492 1493 1494 1495 1496 1498 1500 1501 1503 1505 1507 1508 1511 1513 1516 1518 1519 1520 1520 1521 1522 1524 1525 1526 1527 1529 1530 1532 1534 1536 1537 1539 1541 1542 1543 1545 1546 1547 1548 1549 1550 1551 1552 1553 1554 1555 1556 1557 1558 1558 1559 1560 1560 1560 1560 1561 1562 1562 1563 1563 1563 1563 1564 1563 1563
1510 1508 1506 1504 1503 1501 1500 1499 1498 1497 1496 1496 1495 1495 1494 1493 1493 1492 1492 1492 1492 1493 1494 1494 1496 1499 1500 1502 1503 1505 1507 1509 1511 1513 1515 1517 1519 1520 1520 1521 1522 1524 1525 1526 1528 1529 1531 1533 1534 1536 1537 1539 1540 1542 1543 1544 1545 1547 1548 1548 1550 1550 1551 1552 1553 1554 1555 1555 1556 1557 1557 1558 1558 1558 1558 1559 1559 1560 1561 1561 1561 1561 1561 1560 1560
1511 1509 1507 1505 1503 1502 1500 1500 1499 1498 1497 1496 1496 1496 1495 1494 1494 1494 1493 1493 1493 1494 1494 1495 1497 1499 1500 1502 1504 1506 1507 1508 1511 1513 1515 1517 1519 1519 1520 1521 1522 1524 1525 1527 1528 1529 1531 1533 1535 1536 1537 1538 1540 1541 1543 1544 1545 1546 1547 1548 1549 1550 1551 1551 1552 1553 1554 1554 1555 1555 1555 1556 1556 1556 1556 1557 1557 1558 1558 1559 1559 1559 1559 1559 1558
1511 1509 1508 1506 1504 1503 1501 1500 1500 1499 1498 1497 1497 1496 1496 1496 1495 1495 1495 1495 1494 1495 1496 1497 1499 1500 1501 1503 1505 1506 1506 1507 1510 1513 1515 1516 1518 1519 1520 1521 1523 1524 1525 1526 1527 1528 1530 1532 1534 1535 1536 1538 1540 1541 1542 1544 1545 1546 1547 1548 1548 1549 1550 1551 1551 1552 1553 1553 1553 1553 1554 1554 1554 1554 1555 1555 1556 1556 1557 1558 1558 1558 1559 1558 1557
1512 1511 1509 1507 1506 1504 1503 1501 1500 1500 1499 1498 1498 1497 1497 1497 1496 1496 1497 1497 1497 1498 1498 1499 1501 1502 1504 1505 1506 1507 1507 1508 1510 1513 1515 1516 1518 1519 1520 1521 1523 1524 1525 1526 1527 1529 1531 1532 1533 1535 1536 1538 1540 1541 1542 1543 1545 1546 1546 1547 1548 1548 1549 1550 1550 1551 1551 1551 1552 1552 1552 1552 1553 1553 1553 1554 1554 1555 1556 1556 1556 1557 1557 1557 1557
1514 1512 1511 1509 1508 1507 1505 1503 1502 1501 1500 1500 1499 1499 1498 1498 1498 1498 1499 1499 1500 1500 1501 1502 1503 1504 1506 1506 1507 1508 1509 1509 1511 1514 1515 1517 1518 1519 1520 1521 1522 1524 1525 1526 1528 1529 1531 1533 1534 1535 1537 1538 1539 1541 1542 1543 1544 1545 1545 1546 1546 1547 1548 1548 1549 1549 1550 1550 1550 1551 1551 1551 1551 1552 1552 1552 1552 1553 1553 1554 1554 1555 1556 1555 1555
1516 1515 1513 1510 1509 1508 1507 1505 1504 1502 1502 1501 1501 1501 1500 1500 1500 1500 1500 1501 1502 1502 1503 1504 1505 1506 1507 1508 1508 1508 1509 1511 1513 1514 1516 1517 1518 1519 1520 1521 1522 1523 1524 1525 1527 1529 1531 1533 1534 1535 1537 1538 1539 1540 1541 1542 1543 1544 1544 1545 1545 1546 1547 1547 1548 1549 1549 1549 1549 1549 1550 1550 1550 1550 1550 1550 1550 1551 1551 1552 1552 1553 1554 1554 1554
1518 1517 1515 1512 1510 1509 1508 1507 1506 1505 1504 1503 1502 1502 1501 1501 1501 1501 1502 1503 1504 1504 1505 1506 1506 1507 1509 1510 1510 1510 1511 1512 1513 1515 1516 1517 1518 1519 1520 1520 1521 1523 1523 1524 1526 1529 1530 1532 1533 1534 1536 1537 1539 1540 1541 1542 1542 1543 1544 1544 1545 1545 1546 1546 1546 1547 1548 1547 1547 1548 1548 1548 1548 1548 1549 1549 1549 1549 1549 1550 1550 1551 1552 1553 1553
1520 1518 1516 1514 1512 1510 1509 1508 1508 1507 1506 1505 1505 1504 1503 1503 1503 1503 1503 1504 1505 1506 1507 1508 1508 1509 1510 1511 1512 1512 1513 1513 1514 1515 1516 1517 1518 1519 1520 1521 1523 1524 1524 1524 1525 1528 1530 1532 1534 1535 1535 1537 1538 1539 1540 1541 1542 1542 1543 1544 1544 1545 1545 1545 1545 1546 1546 1546 1547 1547 1547 1547 1547 1547 1548 1547 1547 1548 1548 1548 1549 1549 1550 1550 1551
1522 1520 1518 1517 1514 1513 1511 1510 1509 1509 1508 1508 1507 1506 1505 1505 1505 1505 1505 1506 1506 1507 1508 1509 1510 1511 1511 1512 1512 1514 1514 1515 1516 1517 1517 1518 1519 1520 1522 1523 1524 1526 1526 1526 1526 1529 1532 1534 1535 1535 1536 1537 1538 1538 1539 1540 1541 1542 1543 1544 1544 1544 1544 1545 1545 1545 1546 1546 1546 1546 1546 1546 1547 1547 1547 1547 1547 1547 1547 1547 1548 1548 1549 1549 1549
1524 1522 1521 1519 1518 1516 1514 1513 1512 1511 1511 1511 1510 1509 1508 1508 1507 1507 1507 1508 1508 1509 1510 1511 1511 1512 1512 1513 1513 1514 1515 1516 1517 1518 1519 1520 1521 1522 1523 1525 1526 1528 1528 1528 1529 1530 1532 1534 1535 1535 1536 1537 1537 1538 1538 1539 1540 1541 1542 1543 1544 1544 1544 1544 1545 1545 1545 1545 1545 1545 1546 1546 1546 1546 1546 1546 1546 1546 1546 1547 1547 1548 1548 1548 1548
1526 1525 1524 1522 1522 1520 1518 1517 1515 1514 1514 1514 1513 1512 1512 1511 1510 1510 1510 1510 1510 1511 1512 1513 1513 1513 1513 1514 1515 1515 1517 1518 1519 1520 1521 1521 1522 1523 1524 1526 1528 1528 1529 1529 1530 1531 1532 1534 1535 1536 1536 1536 1537 1537 1538 1539 1540 1542 1542 1543 1543 1543 1543 1544 1544 1545 1545 1545 1545 1545 1545 1545 1546 1545 1545 1545 1546 1547 1547 1548 1548 1548 1548 1548 1548
1528 1527 1527 1526 1525 1524 1522 1520 1519 1518 1517 1517 1516 1516 1516 1515 1514 1514 1513 1513 1513 1514 1515 1516 1517 1516 1516 1517 1517 1517 1518 1519 1520 1521 1522 1523 1523 1524 1525 1527 1529 1529 1529 1531 1531 1532 1533 1534 1535 1536 1536 1536 1537 1538 1539 1540 1541 1542 1543 1543 1543 1543 1543 1543 1544 1544 1545 1545 1545 1545 1545 1545 1545 1545 1545 1546 1547 1548 1548 1549 1548 1549 1549 1549 1549
1530 1530 1529 1529 1528 1527 1525 1524 1523 1522 1521 1521 1520 1520 1519 1519 1519 1518 1518 1518 1517 1517 1518 1519 1519 1520 1519 1520 1521 1521 1521 1522 1522 1522 1523 1524 1524 1526 1527 1529 1531 1531 1531 1532 1533 1533 1535 1536 1536 1537 1537 1537 1538 1539 1540 1540 1541 1542 1542 1543 1543 1543 1543 1543 1544 1544 1545 1545 1545 1545 1544 1544 1545 1545 1545 1546 1547 1547 1547 1548 1549 1549 1549 1550 1551
1532 1532 1532 1531 1530 1529 1528 1528 1527 1526 1525 1525 1524 1523 1523 1523 1522 1522 1523 1523 1522 1522 1522 1522 1522 1522 1522 1522 1523 1523 1524 1525 1525 1524 1525 1525 1526 1527 1528 1530 1531 1531 1532 1533 1534 1535 1536 1537 1537 1538 1538 1538 1539 1540 1541 1541 1542 1542 1543 1543 1543 1543 1542 1543 1544 1544 1544 1544 1544 1544 1544 1544 1545 1545 1546 1546 1546 1546 1547 1548 1549 1549 1550 1550 1551
1535 1534 1534 1533 1533 1532 1531 1531 1530 1529 1528 1528 1527 1527 1527 1527 1526 1526 1527 1527 1527 1527 1526 1525 1525 1526 1525 1525 1526 1526 1526 1527 1527 1527 1528 1528 1529 1529 1530 1531 1531 1532 1533 1534 1535 1536 1536 1537 1538 1539 1539 1540 1540 1541 1541 1542 1542 1543 1543 1543 1543 1542 1542 1543 1543 1544 1544 1543 1543 1543 1544 1544 1544 1545 1545 1545 1546 1546 1547 1548 1549 1549 1549 1550 1550
1537 1537 1536 1536 1536 1535 1535 1534 1533 1532 1532 1531 1530 1530 1530 1530 1530 1530 1530 1530 1530 1530 1529 1529 1529 1529 1529 1529 1529 1529 1529 1530 1530 1530 1531 1531 1531 1531 1532 1532 1533 1533 1534 1535 1536 1537 1538 1539 1539 1540 1540 1541 1541 1541 1542 1542 1542 1543 1543 1542 1542 1542 1542 1542 1543 1543 1543 1543 1542 1542 1543 1543 1544 1545 1545 1546 1546 1546 1546 1547 1548 1548 1549 1549 1549
1540 1540 1539 1538 1538 1538 1538 1537 1537 1536 1536 1535 1535 1534 1534 1533 1533 1533 1533 1533 1533 1532 1532 1531 1531 1532 1531 1531 1531 1532 1532 1532 1532 1533 1533 1533 1533 1533 1534 1535 1535 1536 1537 1537 1538 1538 1539 1539 1540 1540 1541 1541 1542 1542 1542 1542 1542 1542 1542 1541 1541 1541 1542 1542 1542 1542 1542 1542 1542 1542 1542 1543 1544 1545 1545 1546 1546 1546 1546 1547 1547 1548 1548 1548 1548
1542 1542 1542 1541 1540 1540 1540 1540 1540 1540 1540 1539 1539 1538 1538 1537 1537 1536 1536 1536 1535 1535 1534 1534 1534 1533 1533 1533 1534 1534 1534 1534 1534 1534 1535 1535 1535 1536 1537 1538 1538 1539 1539 1540 1540 1540 1540 1540 1541 1541 1541 1542 1542 1542 1542 1542 1542 1541 1541 1541 1541 1541 1541 1541 1541 1541 1541 1541 1542 1542 1542 1542 1543 1544 1545 1545 1545 1546 1546 1547 1547 1547 1547 1547 1548
1545 1544 1544 1544 1543 1543 1542 1542 1542 1542 1542 1542 1541 1541 1541 1541 1541 1540 1540 1539 1538 1538 1537 1536 1536 1536 1536 1536 1536 1536 1536 1536 1536 1537 1537 1537 1538 1538 1539 1540 1540 1541 1541 1541 1542 1542 1542 1542 1542 1542 1542 1542 1542 1542 1542 1541 1541 1541 1540 1541 1540 1540 1541 1541 1541 1541 1541 1541 1541 1541 1542 1543 1543 1544 1544 1545 1545 1545 1546 1547 1547 1547 1547 1547 1547
1546 1546 1546 1546 1546 1545 1545 1545 1544 1544 1544 1544 1543 1543 1543 1543 1544 1544 1543 1543 1542 1541 1540 1539 1539 1539 1538 1538 1538 1538 1538 1538 1539 1539 1539 1540 1540 1540 1540 1541 1542 1542 1542 1543 1543 1543 1543 1543 1543 1543 1543 1542 1542 1542 1542 1542 1541 1541 1541 1541 1541 1541 1541 1541 1541 1541 1541 1541 1541 1542 1543 1544 1545 1545 1546 1546 1546 1546 1546 1547 1547 1547 1547 1547 1548
1548 1548 1547 1548 1548 1548 1548 1548 1547 1547 1547 1546 1545 1545 1545 1545 1545 1545 1545 1545 1545 1544 1544 1543 1542 1542 1541 1541 1540 1540 1540 1540 1541 1541 1541 1541 1541 1541 1542 1542 1543 1543 1543 1544 1544 1543 1543 1543 1543 1543 1543 1543 1543 1543 1543 1543 1542 1542 1542 1542 1542 1542 1542 1541 1541 1541 1541 1542 1542 1543 1543 1545 1546 1547 1547 1546 1546 1546 1546 1547 1547 1547 1547 1548 1548
1551 1551 1550 1550 1550 1550 1550 1550 1550 1550 1549 1549 1548 1548 1547 1546 1546 1546 1547 1547 1547 1547 1547 1546 1545 1544 1544 1543 1543 1543 1543 1542 1542 1543 1543 1543 1543 1543 1543 1543 1543 1544 1544 1544 1544 1544 1543 1543 1543 1543 1543 1543 1543 1543 1543 1543 1542 1542 1542 1542 1542 1542 1541 1541 1541 1540 1541 1542 1542 1543 1544 1545 1546 1546 1546 1546 1546 1546 1547 1547 1547 1547 1547 1547 1547
1553 1553 1553 1553 1553 1552 1552 1552 1552 1551 1551 1551 1550 1550 1549 1548 1548 1548 1547 1548 1548 1548 1549 1548 1548 1547 1547 1546 1545 1545 1545 1544 1544 1544 1544 1544 1544 1544 1544 1544 1544 1544 1544 1544 1544 1543 1543 1543 1543 1543 1543 1543 1543 1543 1543 1542 1542 1541 1541 1541 1541 1541 1540 1540 1540 1540 1541 1542 1543 1544 1545 1545 1545 1546 1546 1546 1546 1547 1547 1547 1547 1546 1546 1546 1546
1553 1554 1554 1554 1554 1555 1555 1554 1554 1553 1553 1553 1552 1551 1551 1550 1550 1549 1549 1549 1549 1549 1550 1549 1549 1549 1549 1548 1548 1547 1546 1546 1546 1545 1545 1545 1545 1545 1545 1545 1545 1544 1544 1544 1543 1543 1543 1542 1542 1542 1542 1542 1542 1542 1542 1542 1541 1541 1541 1540 1540 1540 1539 1540 1540 1540 1542 1543 1544 1544 1545 1546 1546 1546 1546 1546 1547 1548 1548 1548 1548 1547 1547 1546 1546
1555 1555 1555 1555 1555 1556 1556 1556 1556 1555 1555 1555 1554 1553 1553 1553 1552 1552 1551 1551 1551 1551 1551 1551 1550 1549 1549 1549 1549 1549 1548 1547 1547 1546 1546 1546 1545 1545 1545 1545 1545 1544 1544 1544 1543 1543 1543 1542 1542 1542 1542 1542 1542 1542 1541 1541 1541 1541 1541 1541 1540 1540 1540 1541 1541 1541 1542 1544 1545 1545 1546 1547 1547 1546 1547 1547 1548 1548 1547 1547 1547 1547 1547 1546 1546
1558 1557 1557 1557 1557 1557 1557 1557 1557 1557 1556 1556 1556 1556 1555 1555 1555 1554 1554 1553 1553 1553 1552 1552 1551 1550 1549 1549 1549 1549 1550 1549 1548 1547 1547 1546 1546 1546 1545 1545 1545 1545 1544 1544 1544 1543 1543 1543 1542 1542 1542 1542 1542 1541 1541 1540 1540 1540 1541 1541 1541 1541 1541 1542 1542 1542 1543 1544 1545 1546 1546 1546 1547 1547 1548 1548 1548 1547 1547 1547 1547 1546 1546 1546 1545
1560 1559 1559 1559 1559 1559 1559 1558 1558 1558 1558 1558 1558 1558 1557 1557 1557 1556 1556 1556 1555 1555 1555 1554 1553 1551 1550 1550 1549 1549 1550 1550 1549 1549 1548 1547 1547 1547 1547 1546 1546 1546 1545 1545 1545 1544 1544 1543 1543 1542 1542 1542 1541 1541 1540 1540 1540 1540 1540 1541 1541 1541 1541 1542 1542 1543 1543 1544 1545 1545 1546 1546 1547 1547 1548 1548 1548 1548 1548 1547 1547 1546 1546 1546 1545
1561 1561 1561 1561 1561 1561 1561 1560 1560 1560 1559 1559 1559 1559 1559 1559 1559 1558 1558 1558 1557 1557 1557 1556 1555 1553 1552 1551 1550 1550 1551 1551 1551 1550 1550 1549 1549 1548 1548 1548 1547 1547 1546 1546 1545 1545 1544 1544 1543 1543 1542 1542 1541 1540 1540 1539 1539 1540 1540 1540 1540 1541 1541 1542 1542 1542 1543 1544 1544 1544 1545 1545 1546 1547 1547 1547 1548 1548 1547 1547 1547 1546 1546 1545 1544
1563 1563 1563 1562 1562 1562 1562 1562 1562 1561 1561 1561 1560 1560 1561 1561 1561 1560 1559 1559 1559 1558 1558 1557 1557 1556 1554 1553 1552 1552 1552 1552 1552 1552 1551 1551 1550 1549 1549 1548 1548 1547 1547 1546 1546 1545 1544 1544 1543 1542 1542 1541 1541 1540 1539 1539 1539 1539 1539 1539 1540 1540 1541 1542 1542 1542 1543 1543 1543 1543 1544 1545 1546 1547 1547 1547 1547 1547 1546 1546 1545 1545 1544 1544 1544
1564 1564 1564 1564 1564 1563 1563 1563 1563 1562 1562 1562 1562 1562 1562 1562 1562 1561 1561 1560 1560 1559 1559 1558 1558 1557 1556 1555 1554 1554 1554 1553 1553 1552 1552 1551 1550 1550 1550 1549 1548 1548 1547 1547 1546 1545 1545 1544 1543 1542 1542 1541 1540 1540 1539 1539 1539 1539 1539 1539 1539 1540 1540 1541 1541 1542 1542 1542 1543 1543 1544 1545 1546 1547 1547 1546 1546 1546 1545 1545 1543 1543 1543 1543 1543
1565 1565 1565 1565 1565 1565 1564 1564 1564 1564 1564 1564 1564 1563 1563 1563 1562 1562 1561 1561 1560 1560 1559 1559 1558 1558 1557 1557 1556 1555 1555 1554 1553 1553 1553 1552 1552 1551 1550 1549 1548 1548 1547 1547 1546 1545 1544 1544 1543 1542 1541 1541 1540 1540 1539 1539 1538 1538 1538 1538 1539 1539 1540 1540 1540 1540 1541 1541 1543 1545 1546 1546 1546 1547 1547 1546 1545 1545 1544 1543 1542 1542 1542 1542 1542
1566 1566 1566 1566 1565 1565 1565 1565 1565 1565 1565 1565 1564 1564 1564 1563 1563 1562 1561 1561 1560 1560 1560 1560 1559 1558 1558 1557 1557 1556 1556 1555 1554 1554 1553 1552 1552 1551 1550 1549 1548 1548 1547 1546 1546 1545 1544 1543 1543 1542 1541 1540 1540 1539 1539 1538 1538 1538 1538 1538 1538 1538 1539 1539 1539 1540 1540 1541 1543 1544 1545 1546 1546 1546 1545 1544 1544 1543 1542 1542 1542 1542 1542 1542 1542
1566 1566 1566 1566 1566 1565 1565 1565 1565 1565 1565 1565 1565 1565 1564 1564 1563 1563 1562 1561 1561 1561 1561 1560 1559 1559 1558 1558 1557 1557 1556 1556 1555 1554 1553 1552 1551 1550 1549 1549 1548 1547 1546 1546 1545 1544 1544 1543 1542 1542 1541 1540 1540 1539 1539 1538 1538 1537 1537 1537 1538 1538 1539 1539 1539 1540 1540 1541 1542 1543 1543 1544 1545 1544 1543 1543 1543 1542 1542 1541 1541 1541 1541 1542 1542
1566 1566 1566 1566 1566 1566 1566 1566 1565 1566 1566 1566 1565 1565 1565 1564 1564 1563 1563 1562 1562 1561 1561 1560 1560 1559 1559 1558 1557 1557 1556 1556 1555 1555 1554 1553 1552 1550 1549 1548 1547 1547 1546 1545 1545 1544 1543 1543 1542 1542 1541 1540 1539 1539 1538 1538 1537 1537 1537 1537 1537 1538 1538 1539 1539 1540 1540 1541 1541 1541 1542 1542 1542 1542 1542 1541 1541 1541 1541 1541 1541 1541 1541 1542 1542
1566 1566 1566 1566 1566 1566 1566 1566 1566 1566 1566 1566 1566 1565 1565 1565 1564 1564 1563 1563 1563 1562 1561 1560 1560 1559 1559 1558 1557 1557 1556 1556 1555 1555 1554 1554 1553 1551 1549 1548 1547 1546 1546 1545 1544 1544 1543 1542 1542 1541 1540 1540 1539 1539 1538 1538 1537 1537 1537 1536 1536 1537 1537 1538 1538 1539 1539 1540 1540 1540 1540 1540 1540 1540 1540 1540 1540 1540 1540 1541 1541 1541 1541 1542 1542
1566 1566 1566 1566 1566 1566 1566 1566 1566 1566 1566 1566 1566 1565 1565 1565 1564 1564 1563 1563 1562 1562 1561 1561 1560 1559 1559 1558 1557 1557 1556 1555 1555 1555 1554 1553 1553 1551 1549 1547 1546 1546 1545 1545 1544 1543 1543 1542 1541 1541 1540 1539 1539 1538 1538 1537 1536 1536 1536 1536 1536 1536 1536 1537 1537 1538 1538 1539 1539 1539 1539 1539 1539 1539 1539 1539 1539 1540 1540 1540 1540 1541 1541 1542 1542
1566 1566 1566 1565 1565 1566 1566 1566 1566 1566 1566 1565 1565 1565 1564 1564 1564 1563 1563 1563 1562 1561 1561 1560 1560 1559 1558 1558 1557 1556 1555 1555 1554 1554 1553 1553 1552 1551 1549 1547 1546 1546 1545 1544 1543 1543 1542 1542 1541 1540 1540 1539 1538 1537 1537 1536 1536 1535 1535 1535 1535 1535 1535 1536 1536 1537 1537 1537 1538 1538 1538 1538 1538 1538 1538 1539 1539 1539 1540 1540 1540 1541 1542 1542 1542